GRUS-1A

导读

GRUS-1A卫星于北京时间2018年12月27日08时发射,其发射国家当前暂未明确标注。该卫星是小众航天发射任务中的一颗卫星,目前公开资料中关于它的具体任务定位、技术参数、运行轨道等细节信息披露较少。作为2018年末入轨的航天器,它承担着开发者预设的空间试验或观测任务,后续更多相关信息还有待进一步公开披露。

基本信息
目录编号:
43890
目录名称:
GRUS-1A
国际标识:
2018-111Q
轨道中心:
EARTH
卫星名称:
GRUS-1A
卫星全名:
--
卫星状态:
在轨 (已飞行2727 天)
发射日期:
2018-12-27 UTC
国别 :
(TBD)
星等 :
--
轨道信息
数据来源 国际轨道数据 AOE轨道数据
星历时间 2026-06-15T05:33:40+0800
6小时前
查看轨道信息
2026-06-13T06:00:00+0800
2天前
查看轨道信息
半长轴 6948.637km 6948.653km
偏心率 0.0008908 0.0008715
轨道倾角 97.451° 97.450°
近地点辐角 159.414° 166.886°
升交点赤经 33.112° 31.216°
平近点角 200.744° 307.078°
近地点 564.31km 564.46km
远地点 576.69km 576.572km
周期 96.075分钟 96.075分钟
每日圈数 14.988335 14.988284
详细信息
使用方式:
暂无
2D轨道图
3D轨道图
轨道高度分析图
轨道倾角分析图
轨道综合分析图
查看轨道综合分析图